Location: ?
(35.4064°N, 139.3593°E)
Time: 12:29:35
(UTC+00:00)

ARIANE 6 FM1 Upper Stage - Pass Details

Date: 17 December 2025
Orbit: 522 x 610 km, 62.0° (Epoch: 13 January)

Event Time Altitude Azimuth Distance (km) Brightness Sun altitude
Exits shadow 19:22:11 36° 88° (E) 866 4.0 -28.4°
Drops below altitude 10° 19:25:08 10° 48° (NE) 1,781 5.6 -27.8°
Sets 19:27:24 0° 41° (NE) 2,665 6.5 -27.4°
